This is the latest recevied weather packets stored in our database for station/object K0VSC-1. If no packets are shown the sender has not sent any weather packets the latest 1 day(s).
| Time | Temp. | Humidity | Pressure | Rain* | Wind** | Luminosity | Snow |
|---|---|---|---|---|---|---|---|
| 1778007485 | 6.11° C | 46% | 1011.8 hPa | 0 mm | 1.34 m/s, 277° | 339 W/m² | - |
| 1778007185 | 6.11° C | 46% | 1011.7 hPa | 0 mm | 1.34 m/s, 299° | 309 W/m² | - |
| 1778006885 | 6.11° C | 47% | 1011.9 hPa | 0 mm | 1.34 m/s, 280° | 221 W/m² | - |
| 1778006585 | 6.11° C | 47% | 1011.8 hPa | 0 mm | 1.79 m/s, 299° | 258 W/m² | - |
| 1778006285 | 6.11° C | 47% | 1011.7 hPa | 0 mm | 2.24 m/s, 287° | 308 W/m² | - |
| 1778005985 | 6.11° C | 47% | 1011.7 hPa | 0 mm | 1.79 m/s, 270° | 512 W/m² | - |
| 1778005685 | 6.11° C | 46% | 1011.7 hPa | 0 mm | 1.34 m/s, 302° | 526 W/m² | - |
| 1778005385 | 6.11° C | 47% | 1011.7 hPa | 0 mm | 1.34 m/s, 306° | 485 W/m² | - |
| 1778005085 | 5.56° C | 48% | 1011.7 hPa | 0 mm | 1.34 m/s, 325° | 452 W/m² | - |
| 1778004785 | 5.56° C | 50% | 1011.6 hPa | 0 mm | 1.34 m/s, 293° | 294 W/m² | - |
| 1778004485 | 5.56° C | 49% | 1011.7 hPa | 0 mm | 1.34 m/s, 282° | 264 W/m² | - |
| 1778004185 | 5.56° C | 50% | 1011.6 hPa | 0 mm | 1.79 m/s, 303° | 264 W/m² | - |
| 1778003885 | 5.56° C | 50% | 1011.6 hPa | 0 mm | 1.79 m/s, 322° | 230 W/m² | - |
| 1778003585 | 5.56° C | 49% | 1011.6 hPa | 0 mm | 1.79 m/s, 317° | 174 W/m² | - |
| 1778003285 | 5.56° C | 49% | 1011.6 hPa | 0 mm | 1.34 m/s, 309° | 197 W/m² | - |
| 1778002985 | 5.56° C | 49% | 1011.4 hPa | 0 mm | 1.34 m/s, 315° | 299 W/m² | - |
| 1778002685 | 5.56° C | 49% | 1011.4 hPa | 0 mm | 1.34 m/s, 290° | 260 W/m² | - |
| 1778002385 | 5.56° C | 49% | 1011.3 hPa | 0 mm | 0.89 m/s, 296° | 239 W/m² | - |
| 1778002092 | 5.56° C | 50% | 1011.4 hPa | 0 mm | 0.89 m/s, 296° | 250 W/m² | - |
| 1778001785 | 5.56° C | 50% | 1011.4 hPa | 0 mm | 1.79 m/s, 303° | 267 W/m² | - |
| 1778001485 | 5.56° C | 51% | 1011.4 hPa | 0 mm | 1.79 m/s, 306° | 290 W/m² | - |
| 1778001185 | 5° C | 52% | 1011.4 hPa | 0 mm | 1.34 m/s, 327° | 251 W/m² | - |
| 1778000885 | 5° C | 50% | 1011.4 hPa | 0 mm | 1.79 m/s, 297° | 225 W/m² | - |
| 1778000585 | 5° C | 50% | 1011.3 hPa | 0 mm | 1.79 m/s, 306° | 230 W/m² | - |
| 1778000511 | 5° C | 51% | 1011.3 hPa | 0 mm | 1.79 m/s, 317° | 302 W/m² | - |
* Rain latest hour (hover to see other rain measurements)
** Current wind speed in m/s (hover to see current wind gust speed)